Location: Newark
(35.9031°N, 139.7175°E)
Time: 04:33:53
(UTC+00:00)

S-56A Canister/Altair - All Passes

Search period start: 06 June 2020 00:00
Search period end: 16 June 2020 00:00
Orbit: 633 x 2499 km, 38.9° (Epoch: 05 June)

Date Brightness Start Highest point End Pass type
(mag) Time Alt. Az. Time Alt. Az. Time Alt. Az.
06 Jun - 00:31:09 10° W 00:39:18 30° SW 00:50:03 10° SSE daylight
06 Jun - 15:45:05 10° SSW 15:48:45 25° SE 15:52:50 10° E visible
06 Jun - 17:47:13 10° WSW 17:51:58 86° NNW 17:58:27 10° ENE visible
06 Jun - 19:50:37 10° WNW 19:56:21 70° N 20:05:01 10° E daylight
06 Jun - 21:53:57 10° WNW 22:01:07 73° SSW 22:12:13 10° ESE daylight
06 Jun - 23:58:17 10° W 00:06:09 32° SW 00:16:51 10° SSE daylight
07 Jun - 15:13:00 10° SSW 15:16:17 20° SE 15:19:44 10° E visible
07 Jun - 17:14:47 10° WSW 17:19:22 86° SSE 17:25:19 10° ENE visible
07 Jun - 19:18:12 10° W 19:23:34 68° N 19:31:29 10° E daylight
07 Jun - 21:21:29 10° WNW 21:28:11 78° SSW 21:38:34 10° ESE daylight
07 Jun - 23:25:31 10° W 23:33:03 35° SSW 23:43:36 10° SSE daylight
08 Jun - 14:41:00 10° S 14:43:47 16° SE 14:46:36 10° ESE visible
08 Jun - 16:42:21 10° WSW 16:46:48 77° SSE 16:52:17 10° ENE visible
08 Jun - 18:45:47 10° W 18:50:50 66° N 18:58:02 10° E visible
08 Jun - 20:49:03 10° WNW 20:55:17 83° SSW 21:04:57 10° ESE daylight
08 Jun - 22:52:50 10° W 23:00:01 38° SSW 23:10:17 10° SSE daylight
09 Jun - 01:02:03 10° WSW 01:05:01 11° SW 01:08:15 10° SSW daylight
09 Jun - 14:09:10 10° S 14:11:17 13° SE 14:13:21 10° ESE night (unlit)
09 Jun - 16:09:54 10° WSW 16:14:17 67° SSE 16:19:21 10° ENE visible
09 Jun - 18:13:21 10° W 18:18:08 65° N 18:24:42 10° E visible
09 Jun - 20:16:38 10° WNW 20:22:29 89° SSW 20:31:23 10° ESE daylight
09 Jun - 22:20:13 10° W 22:27:01 40° SSW 22:36:56 10° SE daylight
10 Jun - 00:27:55 10° WSW 00:31:56 13° SW 00:36:30 10° SSW daylight
10 Jun - 13:37:48 10° SSE 13:38:44 10° SE 13:39:38 10° SE night (unlit)
10 Jun - 15:37:26 10° SW 15:41:47 57° SSE 15:46:30 10° ENE visible
10 Jun - 17:40:54 10° W 17:45:29 65° N 17:51:30 10° ENE visible
10 Jun - 19:44:15 10° WNW 19:49:43 86° NNE 19:57:53 10° ESE daylight
10 Jun - 21:47:41 10° W 21:54:05 43° SSW 22:03:34 10° SE daylight
10 Jun - 23:54:21 10° WSW 23:58:54 15° SW 00:04:14 10° S daylight
11 Jun - 15:04:56 10° SW 15:09:18 48° SSE 15:13:43 10° E visible
11 Jun - 17:08:24 10° W 17:12:52 66° N 17:18:24 10° ENE visible
11 Jun - 19:11:51 10° WNW 19:17:00 80° NNE 19:24:27 10° ESE daylight
11 Jun - 21:15:11 10° W 21:21:14 47° SSW 21:30:14 10° SE daylight
11 Jun - 23:21:06 10° WSW 23:25:54 16° SW 23:31:42 10° S daylight
12 Jun - 14:32:24 10° SW 14:36:48 40° SSE 14:41:00 10° E visible
12 Jun - 16:35:53 10° W 16:40:17 68° N 16:45:27 10° ENE visible
12 Jun - 18:39:27 10° WNW 18:44:19 74° N 18:51:07 10° E visible
12 Jun - 20:42:43 10° W 20:48:25 51° SSW 20:56:54 10° SE daylight
12 Jun - 22:48:03 10° WSW 22:52:56 18° SW 22:59:00 10° S daylight
13 Jun - 13:59:51 10° SW 14:04:18 34° SSE 14:08:20 10° E night (unlit)
13 Jun - 16:03:17 10° W 16:07:43 73° N 16:12:35 10° ENE visible
13 Jun - 18:07:02 10° WNW 18:11:41 69° N 18:17:52 10° E visible
13 Jun - 20:10:17 10° WNW 20:15:41 55° SSW 20:23:35 10° SE daylight
13 Jun - 22:15:09 10° WSW 22:20:02 19° SSW 22:26:13 10° S daylight
14 Jun - 13:27:15 10° SSW 13:31:47 30° SSE 13:35:41 10° E night (unlit)
14 Jun - 15:30:39 10° WSW 15:35:10 79° NNW 15:39:50 10° ENE visible
14 Jun - 17:34:34 10° WNW 17:39:04 65° N 17:44:44 10° E visible
14 Jun - 19:37:52 10° WNW 19:42:59 60° SSW 19:50:20 10° SE daylight
14 Jun - 21:42:22 10° WSW 21:47:10 21° SSW 21:53:22 10° S daylight
15 Jun - 12:54:38 10° SSW 12:59:13 26° SSE 13:03:04 10° E night (unlit)
15 Jun - 14:57:56 10° WSW 15:02:39 87° NNW 15:07:09 10° ENE visible
15 Jun - 17:02:04 10° WNW 17:06:29 62° N 17:11:42 10° E visible
15 Jun - 19:05:27 10° WNW 19:10:19 67° SSW 19:17:08 10° ESE daylight
15 Jun - 21:09:40 10° W 21:14:22 22° SSW 21:20:29 10° SSE daylight
